User: anonymous
Location: Caltech
(34.1382°N, 118.1253°W)
Time: 15:07:29
(UTC-07:00)
Language:

Cosmos 1733 Rocket - Orbit

View from above orbital plane
View from above orbital plane
View from above satellite
View from above satellite

Ground track
Ground track

The orbit data is extracted from the following two-line orbital elements,

1 16612U 86018B   14241.43367944  .00000320  00000-0  35918-4 0  9930
2 16612 082.5198 175.7416 0016197 288.3135 210.7973 14.83611574439775
Epoch (UTC): 29 August 2014 10:24:29
Eccentricity: 0.0016197
inclination: 82.5198°
perigee height: 606 km
apogee height: 629 km
right ascension of ascending node: 175.7416°
argument of perigee: 288.3135°
revolutions per day: 14.83611574
mean anomaly at epoch: 210.7973°
orbit number at epoch: 43977

The dashed part of the orbit path shows where the satellite is in the earth's shadow,  

DLR